Location: Derby
(52.9213°N, 1.4761°W)
Time: 17:38:21
(UTC+01:00)

Tiros 1 - Pass Details

Date: 28 May 2025
Orbit: 620 x 651 km, 48.4° (Epoch: 13 June)

Event Time Altitude Azimuth Distance (km) Brightness Sun altitude
Rises 18:07:45 0° 261° (W) 2,893 11.8 25.3°
Reaches altitude 10° 18:10:06 10° 256° (WSW) 1,988 11.2 25.0°
Maximum altitude 18:14:30 48° 182° (S) 813 8.0 24.3°
Drops below altitude 10° 18:18:55 10° 108° (ESE) 2,000 9.2 23.7°
Sets 18:21:18 0° 103° (ESE) 2,911 9.9 23.3°
